QPF
0.00 0.00 0.00 0.00 0.00 0.00 0.03 0.03 0.04 0.03 0.10 0.07 0.05 0.02 0.00 0.00 0.05 0.00 0.00 0.00 0.00 0.00 0.00 0.00 0.00 0.00 0.00 0.00 0.00 0.00 0.00 0.00 0.00 0.00 0.00 0.00 0.00 0.00 0.00 0.00 0.00 0.00 0.00 0.00
0.00 0.00 0.00 0.00 0.00 0.00 0.01 0.02 0.11 0.10 0.15 0.02 0.02 0.06 0.01 0.00 0.01 0.00 0.00 0.00 0.00 0.00 0.00 0.00 0.00 0.00 0.00 0.00 0.00 0.00 0.01 0.00 0.02 0.00 0.00 0.00 0.00 0.00 0.00 0.00 0.00 0.00 0.03 0.02
0.00 0.00 0.00 0.00 0.00 0.00 0.00 0.03 0.03 0.06 0.05 0.01 0.00 0.04 0.03 0.01 0.01 0.02 0.00 0.00 0.00 0.00 0.00 0.00 0.00 0.00 0.00 0.00 0.00 0.00 0.01 0.01 0.01 0.01 0.00 0.00 0.06 0.06 0.06 0.03 0.00 0.00 0.01 0.00
0.00 0.00 0.00 0.00 0.00 0.00 0.00 0.00 0.01 0.06 0.06 0.05 0.00 0.02 0.03 0.02 0.00 0.03 0.02 0.00 0.00 0.00 0.00 0.00 0.00 0.00 0.00 0.00 0.00 0.00 0.00 0.01 0.00 0.02 0.02 0.04 0.06 0.06 0.01 0.00 0.00 0.01 0.01 0.00
0.00 0.00 0.00 0.00 0.00 0.00 0.00 0.00 0.01 0.01 0.01 0.01 0.00 0.02 0.02 0.03 0.00 0.01 0.01 0.00 0.01 0.00 0.00 0.00 0.00 0.00 0.00 0.00 0.00 0.00 0.00 0.00 0.00 0.02 0.10 0.03 0.00 0.00 0.00 0.00 0.04 0.05 0.00 0.00
0.00 0.00 0.00 0.00 0.00 0.00 0.00 0.00 0.00 0.01 0.00 0.01 0.00 0.02 0.02 0.01 0.00 0.00 0.00 0.00 0.01 0.02 0.00 0.00 0.00 0.00 0.00 0.00 0.00 0.00 0.00 0.00 0.02 0.03 0.01 0.06 0.05 0.03 0.04 0.01 0.01 0.00 0.00 0.00
0.00 0.00 0.00 0.00 0.00 0.00 0.00 0.01 0.05 0.03 0.02 0.03 0.00 0.01 0.01 0.00 0.00 0.00 0.00 0.00 0.00 0.00 0.00 0.00 0.00 0.00 0.00 0.00 0.00 0.00 0.00 0.00 0.00 0.00 0.01 0.01 0.01 0.01 0.00 0.00 0.00 0.00 0.00 0.01
0.00 0.00 0.00 0.00 0.00 0.00 0.00 0.00 0.02 0.04 0.02 0.02 0.00 0.00 0.00 0.00 0.00 0.01 0.00 0.00 0.00 0.00 0.00 0.00 0.00 0.00 0.00 0.00 0.00 0.00 0.00 0.00 0.00 0.00 0.00 0.02 0.02 0.00 0.00 0.01 0.08 0.02 0.01 0.00
0.00 0.00 0.00 0.00 0.00 0.00 0.00 0.00 0.00 0.01 0.00 0.03 0.02 0.00 0.00 0.00 0.00 0.00 0.00 0.00 0.00 0.00 0.00 0.00 0.00 0.00 0.00 0.00 0.00 0.00 0.00 0.00 0.00 0.00 0.00 0.00 0.00 0.00 0.04 0.07 0.06 0.01 0.00 0.00
0.00 0.00 0.00 0.00 0.00 0.00 0.00 0.00 0.00 0.00 0.00 0.01 0.02 0.00 0.00 0.00 0.00 0.00 0.00 0.01 0.01 0.00 0.00 0.00 0.00 0.00 0.00 0.00 0.00 0.00 0.00 0.00 0.00 0.00 0.00 0.00 0.00 0.00 0.00 0.00 0.00 0.03 0.09 0.05
0.00 0.00 0.00 0.00 0.00 0.00 0.00 0.00 0.00 0.00 0.00 0.00 0.02 0.01 0.00 0.00 0.00 0.00 0.00 0.00 0.01 0.00 0.00 0.00 0.00 0.00 0.00 0.00 0.00 0.00 0.00 0.00 0.00 0.00 0.00 0.00 0.00 0.00 0.00 0.00 0.00 0.00 0.00 0.02
0.00 0.00 0.00 0.00 0.00 0.00 0.00 0.00 0.00 0.00 0.00 0.00 0.00 0.01 0.00 0.00 0.00 0.00 0.00 0.00 0.00 0.00 0.00 0.00 0.00 0.00 0.00 0.00 0.00 0.00 0.00 0.00 0.00 0.00 0.00 0.00 0.00 0.00 0.00 0.00 0.00 0.00 0.00 0.01
0.00 0.00 0.00 0.00 0.00 0.00 0.00 0.00 0.00 0.00 0.00 0.00 0.00 0.01 0.00 0.00 0.00 0.00 0.00 0.00 0.00 0.00 0.00 0.00 0.00 0.00 0.00 0.00 0.00 0.00 0.00 0.01 0.04 0.02 0.00 0.00 0.03 0.00 0.00 0.00 0.00 0.00 0.00 0.00
0.00 0.00 0.00 0.00 0.00 0.00 0.00 0.00 0.00 0.00 0.00 0.00 0.00 0.00 0.00 0.00 0.00 0.00 0.00 0.00 0.00 0.00 0.00 0.00 0.00 0.00 0.00 0.00 0.00 0.03 0.01 0.02 0.03 0.09 0.11 0.12 0.07 0.00 0.01 0.01 0.00 0.00 0.00 0.00
0.00 0.00 0.00 0.00 0.00 0.00 0.00 0.00 0.00 0.00 0.00 0.00 0.00 0.00 0.00 0.00 0.00 0.00 0.00 0.00 0.00 0.01 0.01 0.04 0.02 0.00 0.00 0.00 0.01 0.02 0.00 0.00 0.00 0.00 0.05 0.14 0.14 0.10 0.10 0.07 0.03 0.00 0.00 0.00
0.00 0.00 0.00 0.00 0.00 0.00 0.00 0.00 0.00 0.00 0.00 0.00 0.00 0.00 0.00 0.00 0.00 0.00 0.00 0.00 0.00 0.02 0.06 0.06 0.08 0.02 0.00 0.00 0.00 0.00 0.00 0.00 0.00 0.01 0.02 0.07 0.13 0.17 0.19 0.14 0.09 0.04 0.01 0.02
0.00 0.00 0.00 0.00 0.00 0.00 0.00 0.00 0.00 0.00 0.00 0.00 0.00 0.00 0.01 0.00 0.00 0.00 0.00 0.01 0.01 0.01 0.02 0.05 0.06 0.01 0.04 0.02 0.02 0.00 0.00 0.00 0.01 0.03 0.01 0.02 0.05 0.07 0.07 0.09 0.10 0.06 0.01 0.01
0.00 0.00 0.00 0.00 0.00 0.01 0.00 0.00 0.00 0.00 0.00 0.00 0.00 0.00 0.00 0.00 0.00 0.00 0.00 0.00 0.01 0.01 0.03 0.05 0.02 0.01 0.00 0.03 0.07 0.02 0.01 0.01 0.01 0.01 0.01 0.01 0.01 0.00 0.01 0.01 0.02 0.02 0.02 0.02
0.00 0.00 0.00 0.00 0.01 0.01 0.00 0.00 0.00 0.00 0.00 0.00 0.00 0.00 0.00 0.00 0.00 0.00 0.00 0.00 0.00 0.00 0.01 0.00 0.00 0.01 0.02 0.01 0.04 0.05 0.01 0.00 0.00 0.00 0.02 0.01 0.00 0.00 0.00 0.00 0.00 0.00 0.01 0.04
0.00 0.00 0.00 0.00 0.00 0.02 0.01 0.00 0.00 0.00 0.00 0.00 0.00 0.00 0.00 0.00 0.00 0.00 0.00 0.00 0.00 0.00 0.00 0.00 0.00 0.01 0.02 0.04 0.02 0.00 0.00 0.01 0.02 0.00 0.01 0.01 0.01 0.01 0.00 0.00 0.00 0.01 0.01 0.01
0.00 0.00 0.00 0.00 0.00 0.01 0.00 0.00 0.00 0.01 0.02 0.00 0.00 0.00 0.02 0.01 0.01 0.01 0.00 0.01 0.01 0.00 0.00 0.00 0.00 0.01 0.02 0.02 0.03 0.03 0.03 0.03 0.04 0.03 0.01 0.00 0.00 0.00 0.00 0.00 0.00 0.00 0.00 0.00
0.00 0.00 0.00 0.00 0.00 0.02 0.00 0.00 0.03 0.05 0.00 0.00 0.00 0.00 0.00 0.02 0.06 0.00 0.00 0.01 0.01 0.00 0.00 0.00 0.00 0.00 0.00 0.00 0.01 0.03 0.03 0.03 0.02 0.02 0.01 0.00 0.00 0.00 0.00 0.00 0.00 0.00 0.00 0.00
0.00 0.00 0.00 0.00 0.03 0.01 0.00 0.00 0.00 0.00 0.00 0.00 0.00 0.00 0.00 0.01 0.00 0.00 0.00 0.03 0.04 0.00 0.00 0.00 0.00 0.00 0.01 0.01 0.00 0.01 0.02 0.02 0.01 0.01 0.01 0.01 0.01 0.00 0.00 0.00 0.00 0.00 0.00 0.00
0.00 0.00 0.00 0.00 0.00 0.00 0.00 0.00 0.00 0.00 0.00 0.00 0.00 0.00 0.00 0.01 0.01 0.03 0.03 0.06 0.06 0.02 0.00 0.00 0.00 0.00 0.00 0.01 0.01 0.01 0.01 0.02 0.01 0.01 0.01 0.00 0.00 0.00 0.00 0.00 0.00 0.00 0.00 0.00
0.00 0.00 0.00 0.00 0.00 0.00 0.00 0.00 0.00 0.00 0.00 0.00 0.00 0.00 0.00 0.00 0.01 0.04 0.06 0.03 0.02 0.01 0.00 0.00 0.00 0.00 0.00 0.00 0.00 0.00 0.00 0.00 0.00 0.00 0.00 0.00 0.00 0.00 0.00 0.00 0.00 0.00 0.00 0.00
0.00 0.00 0.00 0.01 0.01 0.01 0.01 0.00 0.00 0.00 0.00 0.00 0.00 0.00 0.00 0.00 0.00 0.03 0.03 0.02 0.01 0.01 0.01 0.01 0.00 0.00 0.00 0.00 0.00 0.00 0.00 0.00 0.00 0.00 0.00 0.00 0.00 0.00 0.00 0.00 0.00 0.00 0.00 0.00
MSLP
1005.31 1004.39 1003.05 1002.26 1002.24 1002.77 1005.04 1006.34 1008.76 1010.21 1011.69 1013.17 1013.31 1013.12 1013.32 1012.39 1011.74 1010.63 1010.14 1010.03 1010.64 1011.30 1011.37 1012.27 1012.51 1013.31 1014.17 1015.19 1015.90 1016.69 1017.03 1017.72 1017.80 1018.05 1018.06 1018.21 1018.35 1018.40 1018.64 1019.01 1019.21 1019.61 1019.40 1019.77
1004.38 1003.23 1002.32 1002.03 1002.19 1002.48 1004.55 1006.78 1008.72 1010.19 1011.82 1012.71 1013.31 1013.03 1013.80 1013.41 1011.91 1011.21 1010.91 1010.26 1010.17 1010.87 1011.41 1011.92 1012.45 1013.00 1013.85 1014.94 1015.83 1016.91 1017.13 1017.83 1017.89 1017.83 1017.74 1018.13 1018.55 1018.54 1018.75 1018.97 1019.35 1019.44 1019.59 1019.95
1002.77 1002.20 1002.14 1001.86 1002.49 1002.77 1003.02 1004.99 1006.77 1007.91 1010.88 1012.67 1013.35 1013.26 1013.61 1013.97 1012.92 1011.72 1011.22 1010.79 1010.68 1010.85 1010.95 1011.63 1012.74 1012.77 1013.47 1014.67 1015.54 1016.59 1017.35 1017.95 1018.15 1018.22 1017.98 1018.41 1018.72 1018.83 1019.22 1019.34 1019.32 1019.51 1019.78 1019.79
1002.66 1001.60 1001.85 1001.69 1002.32 1002.43 1002.58 1004.22 1006.38 1007.98 1008.83 1010.35 1011.66 1013.14 1013.53 1014.32 1013.55 1012.94 1011.84 1010.67 1010.44 1010.62 1011.17 1010.85 1012.06 1013.11 1013.22 1014.17 1015.16 1016.27 1017.06 1017.71 1018.16 1018.34 1018.33 1018.48 1019.04 1019.33 1019.09 1019.32 1019.08 1019.30 1019.59 1019.67
1002.15 1001.55 1001.91 1002.26 1002.05 1002.19 1003.07 1004.22 1006.09 1005.63 1007.23 1008.39 1010.30 1011.25 1013.23 1013.49 1013.56 1012.30 1011.56 1011.21 1010.12 1009.99 1010.84 1010.91 1011.72 1012.56 1013.11 1013.67 1014.57 1015.62 1016.79 1017.53 1017.89 1018.33 1018.82 1018.73 1018.84 1018.77 1018.70 1018.83 1019.51 1019.80 1019.88 1019.75
1001.80 1002.07 1002.40 1002.05 1001.87 1002.57 1003.61 1004.37 1004.69 1005.59 1005.77 1006.19 1007.14 1008.34 1011.37 1011.95 1011.52 1011.46 1011.46 1010.90 1010.20 1010.35 1009.83 1011.97 1011.28 1012.11 1013.01 1013.03 1013.96 1015.01 1016.46 1017.51 1017.97 1018.43 1018.89 1019.07 1019.07 1019.06 1019.28 1018.94 1019.22 1019.08 1019.35 1019.50
1002.36 1002.56 1002.21 1001.88 1001.73 1003.10 1003.94 1003.73 1004.67 1005.99 1005.28 1004.77 1005.59 1006.10 1006.43 1008.24 1008.13 1008.84 1009.49 1009.97 1009.41 1010.47 1009.82 1010.37 1011.03 1012.12 1012.00 1012.54 1013.55 1014.63 1016.11 1017.32 1017.82 1018.33 1018.61 1018.89 1018.99 1019.07 1019.24 1019.47 1019.09 1018.84 1018.83 1019.07
1001.80 1001.77 1001.82 1002.22 1001.53 1002.32 1003.03 1002.98 1004.44 1004.01 1004.46 1005.03 1004.34 1004.11 1005.59 1005.42 1006.13 1007.08 1008.14 1009.74 1009.48 1008.68 1009.50 1009.83 1010.62 1011.85 1011.37 1012.06 1013.36 1014.26 1015.68 1016.77 1017.48 1017.90 1018.33 1018.74 1019.12 1019.00 1018.90 1019.12 1019.28 1018.51 1018.63 1019.04
1001.07 1001.18 1001.53 1001.98 1002.11 1001.91 1002.12 1002.58 1002.51 1004.27 1003.54 1004.01 1004.19 1003.40 1004.54 1004.53 1005.27 1005.60 1006.57 1008.27 1009.01 1008.45 1008.39 1008.49 1009.38 1010.55 1011.31 1012.20 1013.02 1014.08 1015.32 1016.38 1017.06 1017.45 1018.01 1018.50 1018.86 1019.03 1018.81 1019.21 1019.03 1018.88 1018.99 1018.65
1001.81 1001.13 1001.25 1001.96 1002.27 1002.12 1001.64 1001.81 1001.93 1001.65 1002.24 1003.21 1004.26 1004.10 1002.99 1004.09 1004.21 1004.59 1005.01 1006.75 1007.65 1008.49 1008.71 1008.68 1008.63 1009.52 1010.96 1011.96 1012.69 1013.77 1014.86 1015.83 1016.53 1016.99 1017.63 1018.12 1018.42 1018.71 1019.05 1019.07 1019.16 1019.24 1019.65 1018.75
1003.22 1002.46 1001.06 1001.91 1001.72 1001.38 1001.81 1001.35 1001.09 1000.61 1000.91 1001.49 1003.29 1003.65 1002.71 1003.01 1003.67 1004.49 1004.81 1005.15 1007.05 1007.65 1008.35 1008.55 1008.95 1009.58 1010.34 1011.47 1012.60 1013.30 1014.57 1015.46 1016.10 1016.65 1017.08 1017.45 1017.86 1018.12 1018.53 1018.85 1019.01 1018.91 1018.82 1019.00
1004.10 1002.85 1001.70 1001.09 1001.22 1001.60 1000.91 1000.97 1001.13 1000.57 1000.44 1000.21 1000.94 1003.31 1004.05 1003.39 1003.77 1003.91 1004.49 1004.89 1005.32 1006.45 1008.15 1008.73 1009.31 1009.90 1010.85 1012.19 1013.27 1014.12 1014.39 1015.17 1015.91 1016.52 1016.84 1017.26 1017.45 1017.80 1018.02 1018.53 1018.82 1018.83 1019.15 1019.04
1004.64 1003.77 1002.11 1001.43 1000.95 1001.01 1000.89 1000.54 1000.81 1000.44 1000.41 1000.22 1000.43 1002.17 1003.54 1003.87 1004.30 1004.43 1004.64 1005.03 1005.51 1006.59 1007.90 1009.92 1011.11 1011.10 1012.10 1012.90 1013.99 1014.66 1015.08 1015.49 1015.82 1016.58 1016.72 1016.91 1017.16 1017.54 1017.77 1018.04 1018.43 1018.65 1018.87 1019.01
1006.22 1004.37 1003.17 1002.87 1003.35 1002.52 1001.03 1001.02 1000.39 1000.38 1000.00 1000.07 1000.15 1001.84 1003.00 1003.76 1004.75 1005.53 1005.74 1006.00 1006.18 1007.06 1008.28 1010.11 1011.71 1012.76 1013.37 1014.18 1014.90 1015.18 1015.67 1016.11 1016.58 1016.94 1017.26 1017.11 1017.35 1017.27 1017.33 1017.65 1018.05 1018.30 1018.80 1018.92
1005.86 1004.71 1004.19 1003.84 1004.10 1003.13 1001.41 1000.56 1000.47 1000.25 1000.18 999.80 999.61 1000.12 1001.25 1002.56 1003.74 1005.47 1006.75 1007.80 1008.07 1008.98 1009.15 1009.99 1011.59 1012.96 1013.63 1014.37 1015.19 1016.04 1016.61 1016.63 1016.96 1017.28 1017.73 1017.84 1017.64 1017.63 1017.31 1017.60 1018.00 1018.22 1018.44 1018.67
1005.65 1005.19 1005.02 1004.70 1004.53 1003.95 1001.97 1001.30 1000.79 1000.72 1000.81 1000.55 1000.29 1001.13 1001.21 1002.54 1004.53 1005.75 1007.69 1008.98 1009.88 1010.74 1011.51 1011.80 1012.60 1012.85 1013.65 1014.57 1015.34 1016.11 1016.76 1016.92 1017.25 1017.68 1017.72 1018.07 1017.90 1017.95 1018.00 1018.23 1018.27 1018.48 1018.39 1018.65
1005.91 1005.39 1005.95 1004.65 1004.23 1003.91 1003.78 1001.93 1001.55 1001.30 1000.97 1000.84 1001.03 1001.97 1002.37 1005.13 1006.76 1007.82 1008.79 1009.91 1011.03 1011.66 1012.72 1013.31 1013.87 1013.94 1013.71 1014.39 1015.15 1015.82 1016.54 1016.61 1017.30 1017.66 1018.26 1018.67 1018.89 1019.15 1019.25 1019.21 1019.14 1018.95 1018.93 1018.96
1006.34 1006.44 1005.97 1005.30 1006.45 1005.66 1004.14 1003.60 1003.33 1002.53 1002.73 1001.95 1002.45 1003.48 1001.39 1004.42 1007.31 1009.02 1009.36 1010.27 1011.59 1012.70 1013.81 1014.84 1015.57 1015.73 1015.23 1015.32 1015.77 1016.32 1016.67 1017.19 1017.60 1018.14 1018.86 1018.95 1019.47 1019.79 1019.85 1019.80 1020.17 1019.72 1019.89 1019.64
1006.79 1007.00 1006.47 1006.63 1007.84 1008.48 1008.06 1006.33 1005.22 1004.39 1004.39 1004.22 1003.68 1003.39 1005.18 1006.25 1008.20 1009.33 1010.17 1011.25 1012.47 1013.72 1015.11 1015.86 1016.59 1016.85 1016.86 1016.72 1016.78 1017.13 1017.27 1018.08 1018.73 1018.91 1019.34 1019.38 1019.80 1019.93 1020.31 1020.75 1020.84 1020.71 1020.73 1021.01
1007.64 1007.75 1007.71 1007.14 1007.69 1009.70 1010.54 1010.05 1007.79 1006.47 1006.91 1008.11 1004.92 1005.35 1006.85 1008.33 1008.21 1009.97 1011.35 1012.46 1013.39 1014.36 1015.87 1016.99 1017.73 1018.07 1018.27 1018.40 1018.37 1018.62 1019.09 1019.37 1019.79 1019.87 1019.93 1020.02 1020.29 1020.51 1020.38 1020.49 1020.64 1020.82 1021.63 1021.71
1008.84 1008.70 1007.96 1007.65 1008.79 1009.25 1010.16 1010.14 1009.16 1008.07 1008.81 1008.13 1007.52 1008.20 1009.50 1009.81 1010.40 1010.79 1012.57 1013.52 1014.83 1016.35 1017.18 1017.77 1018.28 1018.83 1019.28 1019.47 1019.36 1019.76 1020.09 1020.51 1020.92 1020.79 1020.67 1020.44 1020.49 1020.59 1020.68 1020.86 1021.17 1021.82 1022.30 1022.55
1008.21 1008.65 1008.07 1008.26 1009.97 1010.49 1009.94 1009.27 1009.67 1010.25 1009.38 1009.13 1008.49 1008.79 1010.03 1011.79 1011.89 1012.71 1014.01 1014.78 1016.06 1017.04 1017.71 1018.18 1018.53 1019.24 1019.84 1020.08 1020.23 1020.53 1020.93 1021.26 1021.32 1021.43 1021.35 1021.25 1020.94 1020.95 1021.05 1021.31 1021.77 1022.49 1023.00 1023.04
1009.21 1008.70 1009.13 1009.06 1009.99 1010.84 1010.47 1010.40 1010.46 1010.37 1009.90 1009.93 1009.61 1009.28 1010.75 1011.98 1012.87 1014.25 1015.07 1016.00 1016.81 1017.29 1017.91 1018.52 1019.13 1019.67 1020.12 1020.45 1020.65 1020.95 1021.37 1021.43 1021.76 1021.81 1021.91 1022.05 1021.82 1021.83 1021.73 1022.01 1022.37 1022.75 1022.97 1022.88
1009.37 1009.91 1009.52 1009.70 1010.17 1010.60 1010.79 1010.90 1010.92 1011.01 1010.79 1010.40 1010.25 1010.13 1011.33 1012.78 1013.96 1015.17 1015.95 1016.66 1016.99 1017.60 1017.82 1018.49 1019.05 1019.73 1020.23 1020.46 1020.81 1021.25 1021.57 1021.69 1021.87 1021.88 1022.03 1022.09 1022.03 1022.06 1021.76 1021.79 1022.16 1022.43 1023.08 1023.49
1009.43 1010.13 1009.88 1009.77 1010.03 1011.04 1011.36 1011.54 1011.51 1011.46 1011.42 1011.45 1011.32 1011.83 1012.49 1013.56 1014.91 1016.12 1016.98 1017.51 1017.98 1018.57 1018.88 1018.92 1019.31 1019.82 1020.49 1020.87 1021.31 1021.47 1021.76 1021.62 1021.57 1021.81 1021.69 1021.79 1022.08 1022.10 1023.46 1024.19 1024.90 1024.96 1026.44 1026.51
1009.49 1009.86 1009.92 1009.91 1010.54 1011.06 1011.48 1012.09 1012.05 1011.75 1011.85 1012.04 1012.16 1012.79 1013.55 1014.40 1015.73 1016.75 1017.75 1018.30 1018.64 1019.09 1019.39 1019.67 1020.03 1020.43 1020.99 1021.07 1021.16 1021.59 1021.73 1021.59 1021.37 1021.43 1021.45 1021.49 1021.58 1022.21 1023.07 1024.23 1026.14 1027.46 1027.42 1027.22
Thickness
5762 5756 5761 5789 5803 5798 5776 5773 5748 5754 5749 5731 5727 5736 5739 5758 5762 5775 5783 5789 5787 5786 5797 5796 5799 5796 5791 5786 5781 5776 5775 5772 5773 5769 5768 5768 5768 5770 5769 5767 5765 5763 5765 5763
5752 5750 5786 5800 5799 5799 5780 5748 5736 5748 5740 5728 5726 5733 5733 5737 5763 5771 5774 5785 5791 5790 5793 5796 5796 5797 5792 5786 5782 5775 5775 5772 5773 5775 5775 5773 5769 5772 5771 5770 5766 5767 5766 5765
5754 5773 5790 5789 5779 5783 5795 5762 5757 5758 5737 5728 5718 5717 5726 5733 5749 5764 5777 5783 5787 5789 5792 5794 5789 5795 5795 5787 5784 5778 5774 5772 5773 5773 5777 5774 5771 5771 5769 5769 5770 5769 5767 5768
5758 5786 5777 5778 5773 5790 5774 5788 5764 5754 5750 5728 5744 5697 5715 5720 5729 5744 5760 5780 5787 5792 5790 5801 5795 5788 5794 5791 5789 5783 5779 5775 5773 5773 5773 5772 5765 5760 5770 5770 5774 5772 5770 5770
5753 5767 5763 5760 5776 5792 5768 5785 5743 5770 5758 5751 5733 5719 5701 5715 5714 5739 5759 5769 5789 5797 5794 5797 5796 5794 5795 5797 5793 5788 5781 5777 5776 5775 5770 5771 5769 5773 5776 5777 5771 5770 5770 5772
5766 5779 5769 5775 5790 5786 5780 5774 5774 5769 5770 5751 5759 5750 5711 5717 5732 5744 5755 5769 5784 5787 5803 5788 5804 5799 5794 5802 5797 5792 5781 5776 5776 5774 5771 5769 5769 5771 5769 5774 5773 5777 5776 5775
5745 5748 5772 5784 5773 5768 5768 5763 5728 5715 5737 5747 5778 5765 5764 5764 5775 5773 5769 5770 5789 5784 5795 5798 5796 5792 5800 5799 5797 5793 5782 5774 5775 5774 5773 5772 5772 5773 5772 5771 5775 5778 5779 5778
5731 5727 5758 5773 5773 5758 5763 5770 5726 5720 5726 5736 5788 5767 5754 5791 5795 5794 5787 5771 5779 5796 5796 5798 5798 5792 5801 5800 5795 5794 5784 5777 5776 5776 5774 5774 5772 5774 5777 5777 5776 5785 5784 5782
5745 5741 5769 5770 5776 5779 5766 5753 5790 5736 5771 5750 5756 5789 5787 5799 5792 5799 5794 5783 5778 5792 5801 5808 5806 5802 5799 5796 5794 5791 5784 5779 5777 5778 5776 5774 5773 5773 5776 5776 5780 5781 5781 5784
5750 5736 5764 5760 5769 5774 5773 5788 5760 5774 5736 5721 5737 5740 5776 5781 5789 5798 5801 5789 5791 5792 5795 5800 5809 5808 5800 5797 5796 5793 5788 5780 5779 5780 5777 5775 5775 5775 5773 5775 5775 5776 5776 5783
5739 5740 5758 5755 5748 5754 5759 5763 5775 5792 5789 5754 5730 5747 5791 5794 5796 5790 5801 5805 5792 5795 5798 5804 5804 5806 5806 5801 5794 5793 5787 5781 5778 5778 5778 5777 5776 5777 5776 5774 5775 5777 5781 5779
5734 5739 5732 5749 5771 5774 5778 5768 5772 5762 5764 5790 5783 5739 5778 5794 5802 5806 5805 5810 5815 5807 5799 5802 5803 5806 5799 5790 5786 5783 5787 5781 5778 5776 5776 5775 5777 5776 5776 5774 5774 5776 5773 5773
5722 5720 5727 5737 5762 5770 5759 5776 5776 5787 5791 5776 5775 5765 5786 5790 5792 5801 5802 5807 5810 5804 5798 5785 5778 5786 5785 5782 5777 5775 5777 5776 5776 5772 5773 5774 5774 5773 5773 5773 5774 5774 5773 5772
5709 5717 5721 5711 5704 5734 5746 5756 5776 5777 5770 5777 5788 5768 5778 5781 5780 5783 5790 5797 5804 5800 5794 5784 5770 5767 5765 5767 5765 5766 5766 5766 5765 5765 5764 5768 5768 5771 5773 5773 5772 5772 5770 5770
5708 5700 5718 5724 5721 5734 5750 5761 5765 5765 5775 5772 5798 5800 5794 5794 5792 5785 5780 5777 5782 5776 5785 5784 5773 5765 5762 5756 5756 5755 5751 5754 5757 5756 5755 5756 5762 5765 5770 5769 5768 5768 5768 5768
5711 5694 5706 5703 5713 5721 5741 5755 5761 5765 5767 5775 5787 5776 5804 5789 5789 5780 5766 5761 5760 5757 5759 5766 5764 5765 5761 5755 5751 5746 5745 5748 5749 5745 5746 5747 5753 5755 5758 5758 5758 5760 5763 5764
5696 5702 5684 5697 5728 5726 5706 5741 5751 5760 5774 5778 5767 5765 5795 5744 5748 5754 5750 5750 5745 5750 5747 5748 5748 5751 5760 5755 5748 5744 5742 5744 5741 5739 5736 5735 5737 5738 5740 5742 5746 5749 5752 5755
5688 5686 5695 5695 5688 5675 5726 5743 5743 5747 5745 5765 5761 5763 5773 5757 5749 5745 5750 5746 5741 5739 5736 5734 5730 5733 5742 5744 5743 5740 5739 5735 5736 5733 5727 5727 5725 5725 5726 5728 5728 5733 5736 5740
5693 5683 5683 5678 5660 5659 5669 5707 5716 5723 5722 5737 5752 5747 5743 5742 5733 5731 5740 5740 5734 5729 5723 5722 5719 5719 5723 5728 5731 5728 5729 5725 5719 5719 5716 5719 5717 5717 5715 5711 5713 5719 5719 5719
5679 5679 5672 5676 5663 5626 5634 5648 5694 5712 5691 5672 5723 5730 5724 5721 5721 5716 5725 5723 5721 5722 5712 5705 5703 5704 5705 5707 5712 5710 5708 5709 5706 5708 5709 5709 5707 5704 5706 5707 5709 5711 5703 5705
5643 5645 5656 5671 5652 5658 5653 5655 5681 5663 5663 5694 5709 5707 5697 5699 5707 5720 5712 5708 5703 5693 5690 5691 5691 5689 5688 5690 5695 5694 5693 5692 5692 5695 5698 5701 5701 5700 5699 5699 5698 5694 5691 5692
5654 5644 5657 5662 5618 5620 5665 5669 5655 5659 5678 5685 5699 5699 5691 5680 5694 5694 5689 5689 5682 5678 5678 5679 5680 5678 5676 5677 5678 5679 5679 5680 5681 5682 5683 5686 5693 5693 5693 5692 5689 5684 5681 5681
5638 5658 5642 5655 5635 5650 5660 5656 5661 5667 5672 5673 5682 5690 5688 5681 5679 5673 5674 5673 5670 5670 5668 5668 5666 5665 5665 5666 5667 5667 5667 5670 5670 5671 5672 5672 5676 5678 5681 5681 5680 5678 5678 5683
5650 5653 5646 5646 5646 5646 5651 5653 5655 5656 5659 5668 5675 5682 5678 5667 5665 5659 5660 5659 5660 5660 5660 5659 5658 5654 5653 5656 5655 5656 5656 5658 5659 5660 5662 5664 5666 5668 5674 5678 5678 5678 5678 5676
5648 5644 5640 5643 5645 5640 5639 5642 5645 5647 5650 5650 5657 5656 5657 5656 5650 5644 5642 5642 5641 5638 5640 5646 5646 5645 5642 5643 5641 5643 5644 5648 5651 5652 5655 5657 5657 5660 5650 5647 5648 5652 5640 5643
5650 5639 5633 5629 5638 5633 5631 5633 5637 5639 5640 5641 5641 5639 5640 5640 5633 5631 5626 5627 5627 5626 5627 5628 5630 5630 5628 5630 5632 5630 5632 5637 5641 5644 5648 5652 5651 5649 5644 5638 5628 5621 5624 5627